• In Uzbekistan
  • List of Countries
  • For 7 days
  • Water Temperature
  • Satellite Maps
  • Weather Map
  • Weather Widgets
  • user-avatar
    Login

    Hourly Weather Ali Bayramli

    Today, 24 June, Sunday

    Time Temperature Precipitation Wind Pressure Humidity
    00:00 +27°C° 0 mm 1 mps 755 mmHg 49%
    01:00 +27°C° 0 mm 1 mps 755 mmHg 50%
    02:00 +27°C° 0 mm 1 mps 755 mmHg 51%
    03:00 +26°C° 0 mm 1 mps 755 mmHg 52%
    04:00 +27°C° 0 mm 1 mps 755 mmHg 50%
    05:00 +27°C° 0 mm 1 mps 755 mmHg 49%
    06:00 +28°C° 0 mm 1 mps 755 mmHg 47%
    07:00 +29°C° 0 mm 2 mps 755 mmHg 43%
    08:00 +31°C° 0 mm 2 mps 755 mmHg 39%
    09:00 +34°C° 0 mm 2 mps 755 mmHg 35%
    10:00 +35°C° 0 mm 2 mps 755 mmHg 33%
    11:00 +36°C° 0 mm 2 mps 755 mmHg 31%
    12:00 +37°C° 0 mm 3 mps 755 mmHg 28%
    13:00 +37°C° 0 mm 3 mps 755 mmHg 28%
    14:00 +38°C° 0 mm 4 mps 755 mmHg 27%
    15:00 +39°C° 0 mm 5 mps 755 mmHg 27%
    16:00 +37°C° 0 mm 5 mps 755 mmHg 28%
    17:00 +36°C° 0 mm 5 mps 755 mmHg 29%
    18:00 +35°C° 0 mm 5 mps 756 mmHg 30%
    19:00 +34°C° 0 mm 5 mps 756 mmHg 33%
    20:00 +33°C° 0 mm 4 mps 756 mmHg 37%
    21:00 +30°C° 0 mm 3 mps 756 mmHg 40%
    22:00 +30°C° 0 mm 3 mps 756 mmHg 42%
    23:00 +29°C° 0 mm 2 mps 757 mmHg 44%

    Tomorrow, 25 June, Monday

    Time Temperature Precipitation Wind Pressure Humidity
    00:00 +29°C° 0 mm 2 mps 757 mmHg 46%
    01:00 +28°C° 0 mm 2 mps 757 mmHg 47%
    02:00 +28°C° 0 mm 2 mps 757 mmHg 48%
    03:00 +27°C° 0 mm 2 mps 757 mmHg 49%
    04:00 +28°C° 0 mm 2 mps 757 mmHg 47%
    05:00 +28°C° 0 mm 2 mps 757 mmHg 46%
    06:00 +29°C° 0 mm 2 mps 757 mmHg 44%
    07:00 +30°C° 0 mm 2 mps 757 mmHg 40%
    08:00 +32°C° 0 mm 2 mps 758 mmHg 36%
    09:00 +34°C° 0 mm 2 mps 758 mmHg 32%
    10:00 +35°C° 0 mm 3 mps 757 mmHg 29%
    11:00 +37°C° 0 mm 3 mps 757 mmHg 26%
    12:00 +38°C° 0 mm 4 mps 757 mmHg 23%
    13:00 +40°C° 0 mm 5 mps 757 mmHg 23%
    14:00 +40°C° 0 mm 5 mps 757 mmHg 22%
    15:00 +40°C° 0 mm 6 mps 756 mmHg 22%
    16:00 +39°C° 0 mm 6 mps 756 mmHg 23%
    17:00 +38°C° 0 mm 6 mps 756 mmHg 25%
    18:00 +36°C° 0 mm 6 mps 756 mmHg 26%
    19:00 +35°C° 0 mm 6 mps 756 mmHg 30%
    20:00 +34°C° 0 mm 5 mps 756 mmHg 33%
    21:00 +32°C° 0 mm 4 mps 757 mmHg 36%
    22:00 +30°C° 0 mm 3 mps 757 mmHg 39%
    23:00 +30°C° 0 mm 3 mps 756 mmHg 41%

    Day after tomorrow, 26 June, Tuesday

    Time Temperature Precipitation Wind Pressure Humidity
    00:00 +29°C° 0 mm 2 mps 756 mmHg 44%
    01:00 +28°C° 0 mm 2 mps 756 mmHg 46%
    02:00 +28°C° 0 mm 2 mps 756 mmHg 48%
    03:00 +27°C° 0 mm 1 mps 756 mmHg 50%
    04:00 +28°C° 0 mm 1 mps 756 mmHg 49%
    05:00 +28°C° 0 mm 2 mps 756 mmHg 47%
    06:00 +29°C° 0 mm 2 mps 756 mmHg 45%
    07:00 +31°C° 0 mm 2 mps 755 mmHg 40%
    08:00 +32°C° 0 mm 1 mps 755 mmHg 35%
    09:00 +34°C° 0 mm 1 mps 755 mmHg 30%
    10:00 +36°C° 0 mm 2 mps 755 mmHg 27%
    11:00 +38°C° 0 mm 2 mps 755 mmHg 24%
    12:00 +39°C° 0 mm 2 mps 754 mmHg 21%
    13:00 +40°C° 0 mm 3 mps 754 mmHg 21%
    14:00 +41°C° 0 mm 4 mps 754 mmHg 20%
    15:00 +41°C° 0 mm 5 mps 753 mmHg 20%
    16:00 +40°C° 0 mm 5 mps 753 mmHg 24%
    17:00 +39°C° 0 mm 6 mps 753 mmHg 27%
    18:00 +36°C° 0 mm 6 mps 753 mmHg 30%
    19:00 +35°C° 0 mm 5 mps 753 mmHg 35%
    20:00 +33°C° 0 mm 4 mps 754 mmHg 40%
    21:00 +31°C° 0 mm 3 mps 754 mmHg 45%
    22:00 +30°C° 0 mm 2 mps 754 mmHg 48%
    23:00 +30°C° 0 mm 1 mps 754 mmHg 51%

    27 June, Wednesday

    Time Temperature Precipitation Wind Pressure Humidity
    00:00 +29°C° 0 mm 1 mps 754 mmHg 53%
    01:00 +29°C° 0 mm 1 mps 754 mmHg 53%
    02:00 +28°C° 0 mm 1 mps 753 mmHg 53%
    03:00 +28°C° 0 mm 1 mps 753 mmHg 53%
    04:00 +29°C° 0 mm 1 mps 753 mmHg 51%
    05:00 +29°C° 0 mm 1 mps 753 mmHg 49%
    06:00 +30°C° 0 mm 1 mps 753 mmHg 46%
    07:00 +32°C° 0 mm 1 mps 754 mmHg 41%
    08:00 +33°C° 0 mm 1 mps 754 mmHg 36%
    09:00 +35°C° 0 mm 1 mps 754 mmHg 31%
    10:00 +36°C° 0 mm 1 mps 753 mmHg 27%
    11:00 +39°C° 0 mm 2 mps 753 mmHg 23%
    12:00 +40°C° 0 mm 2 mps 753 mmHg 20%
    13:00 +42°C° 0 mm 3 mps 753 mmHg 19%
    14:00 +42°C° 0 mm 4 mps 752 mmHg 18%
    15:00 +43°C° 0 mm 5 mps 752 mmHg 17%
    16:00 +42°C° 0 mm 5 mps 752 mmHg 18%
    17:00 +40°C° 0 mm 6 mps 752 mmHg 20%
    18:00 +39°C° 0 mm 6 mps 752 mmHg 21%
    19:00 +37°C° 0 mm 5 mps 753 mmHg 26%
    20:00 +35°C° 0 mm 4 mps 753 mmHg 30%
    21:00 +33°C° 0 mm 3 mps 754 mmHg 34%
    22:00 +33°C° 0 mm 3 mps 754 mmHg 36%
    23:00 +31°C° 0 mm 2 mps 753 mmHg 38%

    28 June, Thursday

    Time Temperature Precipitation Wind Pressure Humidity
    00:00 +30°C° 0 mm 2 mps 753 mmHg 39%
    01:00 +30°C° 0 mm 1 mps 753 mmHg 40%
    02:00 +29°C° 0 mm 1 mps 753 mmHg 40%
    03:00 +29°C° 0 mm 1 mps 753 mmHg 40%
    04:00 +30°C° 0 mm 1 mps 754 mmHg 38%
    05:00 +31°C° 0 mm 1 mps 754 mmHg 35%
    06:00 +31°C° 0 mm 1 mps 754 mmHg 33%
    07:00 +33°C° 0 mm 1 mps 754 mmHg 29%
    08:00 +35°C° 0 mm 1 mps 754 mmHg 25%
    09:00 +36°C° 0 mm 1 mps 754 mmHg 22%
    10:00 +37°C° 0 mm 1 mps 754 mmHg 20%
    11:00 +40°C° 0 mm 2 mps 754 mmHg 18%
    12:00 +42°C° 0 mm 3 mps 754 mmHg 16%
    13:00 +42°C° 0 mm 4 mps 753 mmHg 16%
    14:00 +43°C° 0 mm 5 mps 753 mmHg 16%
    15:00 +44°C° 0 mm 6 mps 753 mmHg 16%
    16:00 +42°C° 0 mm 6 mps 753 mmHg 19%
    17:00 +40°C° 0 mm 6 mps 753 mmHg 21%
    18:00 +39°C° 0 mm 6 mps 753 mmHg 23%
    19:00 +37°C° 0 mm 5 mps 754 mmHg 26%
    20:00 +35°C° 0 mm 4 mps 754 mmHg 29%
    21:00 +34°C° 0 mm 3 mps 754 mmHg 33%
    22:00 +33°C° 0 mm 3 mps 754 mmHg 34%
    23:00 +31°C° 0 mm 2 mps 754 mmHg 36%

    29 June, Friday

    Time Temperature Precipitation Wind Pressure Humidity
    00:00 +31°C° 0 mm 2 mps 754 mmHg 37%
    01:00 +30°C° 0 mm 2 mps 753 mmHg 37%
    02:00 +30°C° 0 mm 2 mps 753 mmHg 37%
    03:00 +29°C° 0 mm 2 mps 753 mmHg 37%
    04:00 +30°C° 0 mm 1 mps 753 mmHg 36%
    05:00 +31°C° 0 mm 1 mps 753 mmHg 36%
    06:00 +31°C° 0 mm 1 mps 754 mmHg 35%
    07:00 +33°C° 0 mm 1 mps 754 mmHg 31%
    08:00 +34°C° 0 mm 1 mps 754 mmHg 27%
    09:00 +36°C° 0 mm 1 mps 754 mmHg 23%
    10:00 +38°C° 0 mm 2 mps 753 mmHg 21%
    11:00 +40°C° 0 mm 3 mps 753 mmHg 18%
    12:00 +42°C° 0 mm 4 mps 753 mmHg 15%
    13:00 +42°C° 0 mm 4 mps 752 mmHg 15%
    14:00 +43°C° 0 mm 5 mps 752 mmHg 15%
    15:00 +44°C° 0 mm 6 mps 752 mmHg 15%
    16:00 +42°C° 0 mm 6 mps 752 mmHg 17%
    17:00 +40°C° 0 mm 6 mps 752 mmHg 19%
    18:00 +39°C° 0 mm 6 mps 752 mmHg 20%
    19:00 +37°C° 0 mm 5 mps 752 mmHg 25%
    20:00 +35°C° 0 mm 4 mps 753 mmHg 29%
    21:00 +33°C° 0 mm 3 mps 753 mmHg 33%
    22:00 +32°C° 0 mm 2 mps 753 mmHg 35%
    23:00 +31°C° 0 mm 2 mps 753 mmHg 37%
    Show more